SL-14 DEB, 47079

Orbit data source: Space-Track

SL-14 DEB, 47079 is space debris in LEO originally from a launch on Thu, 15 Aug 1991 UTC launched from the Plesetsk Missile And Space Complex (PKMTR). Debris objects in space refer to the collection of defunct objects orbiting the Earth. Examples of debris include non-operational satellites, rocket bodies, and fragments generated from explosions, collisions, or faulty payload assembly.

Loading next visibility...
Identifier
47079, 1991-056DD
Orbit
LEO
Country
Flag of CISCIS
Related business
Manufacturer
Unknown
Mission
Spacecraft
Bus & Motor
Unknown
Mass
Unknown
Launch date (UTC)
1991-08-15 (35 years ago)
Launch vehicle
Unknown
Launch site
Plesetsk Missile And Space Complex (PKMTR)
Object type
Payload
Rocket body
Debris
Shape & HBR
Unknown shape, 0.1 m
Radar Cross Section
Small (<0.1 m²)

Expand to show TLE details & history
Last TLE update: 2 weeks ago

TLE from 2 weeks ago
0 SL-14 DEB
1 47079U 91056DD  26243.81015697  .00000344  00000-0  76452-3 0  9990
2 47079  82.5416  64.9536 0033246 167.5020 192.6939 13.24910868281740
Epoch: 2026-08-31T19:26Z
TLE epoch observation values (Epoch: 2026-08-31T19:26:37.562Z)
Latitude
-0°
Longitude
153.31104°
Altitude
1,193.315 km
Speed
7.245 km/s
True Right ascension
04h 19m 48s
True Declination
0° 00' 00"
Sunlit
Object was in daylight at epoch
Visualization orbit readout
Latitude
Unknown
Longitude
Unknown
Altitude
Unknown
Speed
Unknown
Apparent Right ascension
Unknown
Apparent Declination
Unknown
Sunlit
N/A
Visualization observer readout
Local Sidereal Time
14:26:04
Azimuth
Unknown
Elevation
Unknown
Doppler factor
Unknown
Orbital elements
Apogee altitude
1,188.326 km
Perigee altitude
1,138.182 km
Semi-major axis
7,541.391 km
Eccentricity
0.00332
Inclination
82.5416°
RAAN
64.9536°
Arg. of periapsis
167.502°
True anomaly
192.61052°
Mean anomaly
192.6939°
Eccentric anomaly
192.65218°
Mean motion
3.3141 °/min
Orbital period
108.63 mins
BSTAR
0.00076452
Loading maneuver chart data...
Computing Atmospheric mass density...
Loading historical data...
Loading historical data...
Loading historical data...
Loading historical data...
Loading historical data...
Loading historical data...
Loading historical data...

Documentation

Showing up to 5 results
|